Regional Weather Roundup
Issued by NWS

Home | Current Version | Previous Version | Graphics & Text | Print | Product List | Glossary On
Versions: 1 2 3 4 5 6 7 8 9 10 11 12 13 14 15 16 17 18 19 20 21 22 23 24 25 26 27 28 29 30 31 32 33 34 35 36 37 38 39 40 41 42 43 44 45 46 47 48 49 50
000
ASUS45 KPSR 302010
RWRAZ

ARIZONA REGIONAL HOURLY WEATHER ROUNDUP
NATIONAL WEATHER SERVICE PHOENIX AZ
100 PM MST SAT AUG 30 2014

NOTE: FAIR INDICATES FEW OR NO CLOUDS BELOW 12,000 FEET WITH NO
SIGNIFICANT WEATHER AND/OR OBSTRUCTIONS TO VISIBILITY.

AZZ001>003-036-302100-
NORTHWEST ARIZONA

CITY           SKY/WX    TMP DP  RH WIND       PRES   REMARKS
BULLHEAD CITY  SUNNY    106  37   9 W6        29.74F HX 100
KINGMAN        SUNNY     98  33  10 SW21G28   29.97S
$$

AZZ004>008-015-016-018-302100-
NORTH CENTRAL ARIZONA

CITY           SKY/WX    TMP DP  RH WIND       PRES   REMARKS
GRAND CANYON   MOSUNNY   81  34  18 SW5G21    30.21F
WILLIAMS       SUNNY     79  37  22 SW12G17   30.30S
PRESCOTT       SUNNY     87  41  19 S8        30.11F
FLAGSTAFF      SUNNY     78  36  21 W12G18    30.26F
PAYSON         SUNNY     86  39  19 SW10G18   30.14F
PAGE           PTSUNNY   89  38  16 N6        30.01F
$$

AZZ009>014-017-302100-
NORTHEAST ARIZONA

CITY           SKY/WX    TMP DP  RH WIND       PRES   REMARKS
WINSLOW        SUNNY     93  39  15 S12       30.08F
SAINT JOHNS    SUNNY     86  37  17 SW5G21    30.13F
WINDOW ROCK    MOSUNNY   87  28  12 SW14G21   30.20F
SHOW LOW       SUNNY     81  39  22 SW13G18   30.24S
$$

AZZ023-302100-
GREATER PHOENIX AREA

CITY           SKY/WX    TMP DP  RH WIND       PRES   REMARKS
PHOENIX        MOSUNNY  105  39  10 VRB6      29.78F
BUCKEYE          N/A    102  43  13 E3        29.79F
GLENDALE       SUNNY    106  45  12 CALM      29.80F HX 101
LUKE AFB       NOT AVBL
DEER VALLEY    SUNNY    103  39  11 VRB3      29.81F
SCOTTSDALE     SUNNY    104  39  10 VRB5      29.83F
MESA-FALCON    SUNNY    104  39  11 SW6       29.80F
MESA-GATEWAY   SUNNY    100  37  11 NW6       29.82F
CHANDLER       SUNNY    104  39  11 SW7       29.80F
$$

AZZ027-028-302100-
SOUTHWEST MARICOPA COUNTY AND PINAL COUNTY

CITY           SKY/WX    TMP DP  RH WIND       PRES   REMARKS
CASA GRANDE    SUNNY    104  45  13 S3        29.82F HX 100
$$

AZZ503-504-507>509-302100-
SOUTHEAST ARIZONA

CITY           SKY/WX    TMP DP  RH WIND       PRES   REMARKS
TUCSON         SUNNY    101  36  10 S9G20     29.92F
DAVIS-MONTHAN  SUNNY    100  43  14 VRB3      29.90F
RYAN FIELD       N/A    100  41  13 SW9       29.90F
NOGALES        SUNNY     93  47  20 W6        30.02F
SIERRA VISTA   MOSUNNY   92  45  19 SE7       30.08F
DOUGLAS        SUNNY     93  50  23 S9        30.04F
SAFFORD        SUNNY     98  43  15 NW6       29.94F
$$

AZZ020-021-025-026-031-302100-
SOUTHWEST ARIZONA

CITY           SKY/WX    TMP DP  RH WIND       PRES   REMARKS
YUMA           SUNNY    109  47  12 S10       29.71F HX 105
$$

CAZ031-033-041-043-047-048-061-302100-
SOUTHERN CALIFORNIA

CITY           SKY/WX    TMP DP  RH WIND       PRES   REMARKS
DOWNTOWN L.A.  SUNNY     88  63  43 VRB3      29.80F
L.A. AIRPORT   MOSUNNY   77  64  64 W8        29.82F
SAN DIEGO      MOSUNNY   78  63  59 NW8       29.83F
BURBANK        SUNNY     90  56  31 SE5       29.82F
ONTARIO        MOSUNNY   93  44  18 W5        29.82F
RIVERSIDE      SUNNY     95  44  17 VRB5      29.81F
PALM SPRINGS   SUNNY    110  30   6 SE8       29.72F HX 102
EL CENTRO NAS  SUNNY    107  47  13 SE6       29.70F HX 103
IMPERIAL       SUNNY    106  44  12 MISG      29.68F HX 101
BLYTHE         SUNNY    107  37   9 SE9       29.71F HX 101
NEEDLES        SUNNY    110  33   7 W15G23    29.74F HX 102
$$

NVZ020-UTZ003-302100-
SOUTHERN NEVADA-UTAH

CITY           SKY/WX    TMP DP  RH WIND       PRES   REMARKS
LAS VEGAS      PTSUNNY  102  29   7 S21G30    29.76F
SALT LAKE CITY CLOUDY    82  37  20 S15       29.95F
$$

NMZ009-TXZ055-302100-
NEW MEXICO-WEST TEXAS

CITY           SKY/WX    TMP DP  RH WIND       PRES   REMARKS
ALBUQUERQUE    MOSUNNY   85  41  21 S7        30.13F
EL PASO        MOSUNNY   93  44  18 S6        30.03F
$$


........................KEY........................
SKY/WX - SKY CONDITION/WEATHER
TMP    - TEMPERATURE IN FAHRENHEIT
DP     - DEW POINT IN FAHRENHEIT
RH     - RELATIVE HUMIDITY IN PERCENT
WIND   - DIRECTION AND SPEED IN MILES PER HOUR (MPH)
VRB    - VARIABLE WIND DIRECTION
PRES   - MEAN SEA LEVEL PRESSURE IN INCHES OF MERCURY
         F - FALLING PRESSURE   R - RISING PRESSURE
         S - STEADY PRESSURE
VSB    - VISIBILITY IN MILES
HX     - HEAT INDEX IN FAHRENHEIT
WCI    - WIND CHILL INDEX IN FAHRENHEIT
TC     - TEMPERATURE IN CELSIUS WHICH IS ALSO KNOWN AS
         TEMPERATURE IN CENTIGRADE
AFB    - AIR FORCE BASE
         LUKE AFB IS LUKE AIR FORCE BASE
         DAVIS-MONTHAN IS DAVIS-MONTHAN AIR FORCE BASE
NAS    - NAVAL AIR STATION
         EL CENTRO NAS IS EL CENTRO NAVAL AIR STATION
N/A    - NOT AVAILABLE



USA.gov is the U.S. government's official web portal to all federal, state and local government web resources and services.